Theta_e
340 341 345 347 347 347 346 346 345 343 341 338 338 339 339 343 354 356 352 348 342 338 339 338 337 337 337 337 337 337 338 338 338 338 338 339 338 337 337 336 336 336 337 336 335 334 332 330 330 329 329 329 330 329 330 330 330 330 330 330 330 331 331 331 331 331 331 331 330 329 328 328 327 327
345 341 342 345 346 347 348 348 348 345 343 339 335 339 340 340 346 350 354 354 345 339 341 339 337 336 336 338 338 338 339 339 339 339 339 339 338 338 337 337 338 337 337 336 335 335 334 331 329 329 329 329 329 329 330 330 330 330 329 328 329 329 329 330 330 330 330 330 330 330 329 329 328 328
349 346 344 344 344 345 347 348 348 347 345 342 337 337 339 340 341 342 347 352 346 341 341 340 338 336 336 337 338 338 339 338 339 339 339 339 339 338 338 340 339 338 337 336 336 336 334 331 328 326 326 328 328 328 329 329 328 328 327 327 327 328 328 328 329 329 329 329 329 329 329 329 329 329
350 348 347 345 344 344 345 347 348 347 346 344 341 339 339 339 341 341 342 345 345 342 342 341 339 338 337 337 338 339 339 339 338 339 339 339 339 338 339 340 339 337 337 337 336 334 332 330 328 327 327 327 326 327 327 327 327 327 328 328 329 330 330 330 330 329 330 329 329 329 329 329 329 329
352 351 349 347 346 345 345 345 345 346 346 346 344 342 341 339 340 340 341 343 342 342 342 342 340 338 338 338 338 339 340 340 339 338 339 340 339 338 338 337 336 336 336 336 335 335 335 334 333 333 332 331 329 329 328 328 329 330 331 332 332 333 333 333 332 331 331 331 330 330 330 329 329 329
353 352 350 349 347 346 347 346 344 345 346 347 346 344 343 342 341 341 340 341 342 342 342 342 342 340 340 340 339 339 340 340 340 339 339 340 339 338 338 336 335 334 334 336 338 338 338 337 335 335 335 334 333 332 332 332 332 333 332 333 333 333 332 332 332 332 332 332 331 331 330 330 329 329
354 352 352 351 349 347 347 347 346 345 345 346 346 346 344 343 341 341 341 340 341 342 342 341 342 342 341 341 341 340 339 340 340 340 340 340 340 340 340 339 337 335 335 338 339 340 339 338 336 336 335 334 334 333 333 333 333 333 333 333 332 331 331 331 331 331 331 330 330 330 329 329 329 329
355 353 352 352 351 350 347 347 347 347 346 346 347 346 345 344 343 342 341 341 341 341 342 341 341 342 341 341 341 341 339 339 339 340 341 341 341 341 341 341 339 339 339 339 339 339 338 337 336 336 335 335 334 333 333 334 333 333 333 332 331 329 329 329 329 328 328 328 328 328 328 328 328 328
356 355 353 352 352 351 349 347 347 348 348 346 346 346 346 345 344 343 341 342 341 341 342 342 340 341 342 341 340 340 339 339 338 339 340 340 342 342 342 341 341 341 341 340 340 339 338 338 337 336 336 336 335 335 335 335 334 333 333 332 331 330 328 328 326 327 327 326 326 325 326 326 326 327
358 357 355 353 353 352 351 349 347 347 348 347 346 346 346 346 345 344 342 342 342 342 342 342 341 341 342 342 342 340 339 339 339 339 340 340 341 342 342 343 342 340 340 340 340 339 338 339 338 337 337 336 335 335 336 335 334 334 333 332 332 331 330 329 328 328 328 325 322 320 321 322 323 324
359 358 357 355 354 353 352 351 349 348 347 348 347 346 346 347 346 345 343 342 343 343 343 343 342 342 342 343 344 343 341 339 339 340 340 341 341 340 341 341 341 340 338 339 340 339 338 338 338 336 336 336 336 336 336 336 335 334 333 333 333 333 332 330 330 330 328 323 319 317 317 317 317 318
360 359 358 357 356 354 353 352 351 349 348 348 348 347 346 346 346 345 344 343 344 345 344 344 343 343 343 343 344 344 342 340 339 339 339 340 340 341 341 340 340 340 339 339 340 340 339 338 337 337 336 336 336 336 336 336 336 335 334 334 333 334 333 330 330 330 327 322 320 319 318 316 313 311
360 360 359 358 357 355 354 354 352 351 349 348 347 347 346 345 346 346 344 344 345 346 345 344 343 343 343 344 344 345 344 342 341 340 339 340 340 341 341 341 341 341 340 340 340 340 340 340 337 337 337 337 337 337 338 337 336 334 334 334 334 334 332 328 327 327 325 322 321 321 319 314 309 306
360 360 360 359 358 357 356 355 354 352 351 349 347 347 345 345 345 346 345 344 344 345 346 345 344 344 343 343 343 344 344 343 343 342 341 341 341 342 343 343 342 342 341 342 341 341 341 341 339 337 337 337 337 337 337 336 335 334 334 334 334 333 332 327 325 324 323 322 321 319 314 308 305 303
360 360 360 359 359 358 358 356 356 354 353 352 350 348 347 345 344 345 345 345 345 345 345 345 345 345 344 344 343 342 343 344 344 343 342 342 342 342 344 344 344 343 342 343 343 342 343 342 340 338 338 337 338 337 336 336 336 334 334 333 333 333 331 327 324 323 323 322 319 314 311 308 305 304
361 360 360 360 359 359 358 358 357 356 355 354 352 351 349 347 345 344 344 344 344 344 344 345 345 345 345 344 344 343 342 343 343 344 343 343 342 342 343 343 343 343 343 344 345 344 343 343 342 341 339 338 338 337 336 335 334 333 333 332 332 332 330 326 324 323 322 320 315 312 312 310 307 305
362 361 361 361 361 360 359 358 358 357 356 355 354 353 352 349 348 346 344 343 343 343 344 344 344 345 345 345 344 343 343 342 343 344 344 343 343 343 343 342 342 343 343 345 345 344 343 343 343 342 340 338 338 336 335 334 332 332 333 332 332 331 327 325 324 323 320 316 313 313 313 311 309 309
362 361 361 361 361 360 360 359 359 358 357 357 355 354 352 352 350 348 347 345 344 343 344 344 343 343 343 343 343 342 342 342 342 343 344 344 343 343 343 342 342 343 343 343 343 343 342 341 341 340 338 337 337 336 334 333 332 333 333 332 331 328 325 324 323 321 317 315 314 313 312 312 312 312
361 360 360 360 360 360 359 359 360 359 358 357 356 354 353 352 350 349 349 347 346 345 344 343 343 343 342 342 342 342 341 342 341 342 343 343 344 344 344 344 344 344 343 343 342 342 341 340 340 339 338 338 336 334 334 333 332 332 332 329 327 325 324 323 321 318 316 314 314 313 312 312 313 314
359 360 360 359 359 358 358 358 359 359 359 358 357 355 353 352 351 350 350 350 349 347 346 345 344 343 343 343 342 342 341 341 341 342 342 343 344 344 345 345 344 344 344 343 342 342 341 340 339 339 338 337 335 334 334 332 330 329 328 325 325 325 324 321 319 316 315 314 314 314 313 313 313 313
359 359 360 359 359 358 358 357 358 358 358 358 357 356 354 352 351 351 350 351 350 349 348 346 345 344 344 343 343 343 341 341 341 343 343 344 344 345 345 344 344 344 343 343 342 342 341 340 340 339 337 335 334 334 333 330 328 327 325 325 325 324 322 319 317 315 314 314 314 313 313 313 314 313
361 360 360 360 361 359 359 358 358 357 358 358 358 356 355 354 352 352 351 350 350 350 348 347 346 345 344 344 344 343 343 342 342 343 344 343 344 345 344 343 343 343 343 343 342 342 341 340 340 339 336 334 334 334 332 329 328 327 325 325 325 323 319 317 316 315 315 315 314 313 313 313 314 314
362 362 361 361 362 362 362 361 360 358 358 357 357 357 356 355 354 353 352 351 351 350 349 347 346 346 345 345 345 344 344 343 342 343 343 343 344 345 344 343 343 343 343 342 342 341 341 341 340 338 335 334 334 333 331 329 328 326 325 325 323 321 318 316 316 315 315 314 313 313 313 313 314 314
363 362 363 362 362 363 363 363 363 362 360 359 358 357 356 356 356 355 354 353 352 351 350 349 348 346 346 345 345 345 345 344 344 343 343 344 344 344 344 343 342 342 342 341 341 341 341 340 339 338 336 334 332 330 329 328 326 324 323 323 322 320 318 316 316 315 314 313 312 313 313 314 314 315
364 363 363 363 362 362 362 362 363 363 363 362 361 359 358 357 356 356 355 354 353 352 351 351 348 347 346 345 345 345 345 345 345 343 343 343 343 343 343 342 342 341 341 340 340 341 340 339 338 337 336 333 330 328 326 325 324 323 323 321 320 319 317 316 315 314 314 313 313 313 313 314 314 315
364 364 365 364 364 364 363 362 362 362 362 363 363 362 361 360 358 357 356 355 354 353 352 351 350 348 347 345 345 344 344 344 344 344 343 343 343 343 342 342 342 341 341 340 340 339 338 337 336 335 334 332 328 326 325 324 323 323 321 320 319 318 317 315 315 313 313 313 313 313 313 314 314 315
365 365 365 364 364 365 364 363 363 363 362 362 362 362 362 362 361 360 356 355 355 353 352 351 350 349 348 346 345 344 343 343 343 344 344 344 343 343 342 342 341 340 340 340 339 338 337 336 335 334 333 330 327 325 325 324 323 322 321 319 317 316 315 314 313 313 313 313 313 312 313 314 315 316
364 365 365 365 364 364 363 363 363 363 362 362 362 362 361 362 363 361 357 355 355 354 353 351 351 350 348 347 346 345 344 343 342 343 344 344 343 342 343 342 342 340 339 338 337 336 335 334 333 333 331 329 326 325 325 324 323 322 321 317 315 314 314 313 313 313 312 311 312 313 314 316 316 316
361 362 363 363 363 363 363 362 361 361 362 362 362 361 361 360 359 358 356 354 352 353 354 352 351 351 350 348 347 346 345 343 342 342 343 344 344 343 342 342 341 340 338 336 335 334 333 333 332 331 329 328 327 326 325 324 323 322 319 317 315 314 312 313 313 312 311 312 313 314 315 316 316 316
356 358 359 360 360 361 361 361 360 360 361 361 360 359 358 357 355 353 353 352 350 351 353 353 352 352 351 349 348 347 345 343 342 342 342 342 342 342 341 340 339 338 337 335 334 333 332 333 332 330 328 328 327 326 324 322 321 321 319 317 315 314 313 313 313 312 312 313 314 315 316 316 316 316
343 346 349 350 351 351 352 353 353 353 354 355 355 356 355 355 353 351 351 351 352 352 353 354 353 353 352 350 347 346 344 343 342 341 340 340 341 340 340 338 337 336 335 334 334 333 332 332 331 329 328 326 325 324 322 321 320 319 318 317 315 314 313 313 312 312 313 313 314 315 316 315 314 314
333 334 335 335 336 336 337 338 338 339 340 343 345 348 349 350 351 350 348 348 349 351 353 354 354 353 352 348 345 344 343 343 342 340 340 339 339 339 338 336 335 333 331 331 331 332 331 331 330 329 328 326 325 323 321 320 319 318 317 316 315 314 314 312 311 311 312 313 314 315 315 314 314 313
332 332 332 332 331 331 331 331 332 332 333 334 337 340 344 346 348 348 346 346 346 348 350 352 353 353 351 348 345 343 342 342 341 340 339 338 338 337 336 335 333 331 329 328 329 329 329 329 328 327 326 325 323 322 320 319 318 317 316 316 316 315 313 311 311 311 312 314 316 316 315 315 314 313
331 331 330 330 329 329 329 329 330 330 331 332 333 334 336 340 343 345 345 345 345 346 348 350 351 352 350 348 344 343 341 340 340 340 339 339 337 336 335 335 333 330 329 327 327 327 327 326 326 325 324 323 322 321 320 319 318 317 316 316 314 313 310 310 312 314 314 316 316 316 315 315 313 313
332 330 329 329 329 329 328 328 329 329 329 330 330 331 332 333 335 339 341 344 344 345 345 347 349 350 350 347 343 341 341 340 339 339 339 338 337 336 335 334 332 330 328 327 326 326 325 324 324 323 322 321 321 320 319 319 319 317 316 315 313 311 310 311 314 316 316 317 316 315 314 313 313 314
334 332 331 330 330 330 329 329 329 330 329 329 329 329 330 330 331 333 335 338 341 343 345 345 346 348 349 346 343 340 340 340 339 338 338 337 335 334 334 333 331 329 328 327 326 325 324 323 323 322 320 319 320 320 319 319 319 318 315 314 314 312 311 313 315 317 317 317 316 314 313 313 314 314
335 334 333 332 332 332 332 332 332 331 331 331 330 330 330 330 331 331 331 333 335 338 342 344 345 346 347 345 342 340 339 339 338 338 337 335 334 333 333 332 331 329 328 327 326 325 324 323 322 321 320 319 321 321 320 319 318 317 315 314 315 315 313 314 316 317 317 316 313 312 312 314 315 315
335 335 334 334 334 334 334 334 333 333 333 333 332 332 331 331 331 331 331 332 332 334 337 341 343 345 345 344 341 339 338 338 338 337 336 334 333 332 331 330 330 329 328 327 326 326 324 323 321 321 321 320 321 322 321 319 317 317 316 316 316 316 316 316 317 317 316 314 311 310 311 314 315 314
335 335 335 335 335 335 335 334 334 335 334 334 334 333 333 332 332 332 332 332 332 332 334 337 339 342 343 343 341 339 338 337 337 336 335 333 332 331 330 329 329 328 327 326 326 325 324 323 322 321 321 321 321 322 321 318 316 317 318 318 316 316 316 318 318 317 315 312 310 309 311 314 315 314
334 334 334 334 334 334 334 334 334 334 334 333 333 333 332 332 332 332 332 331 331 331 332 333 335 337 340 341 340 339 338 337 336 335 334 332 331 330 329 328 328 327 326 325 325 324 324 324 323 322 322 322 321 320 318 316 315 315 316 316 315 315 315 316 316 315 313 311 309 310 311 313 314 314
334 334 334 333 333 333 333 333 333 333 333 333 333 332 332 332 332 332 332 331 331 331 331 332 334 336 338 340 340 338 336 335 334 333 331 330 329 329 328 327 326 326 325 324 324 324 324 324 324 323 323 322 320 318 315 314 313 313 313 314 313 313 312 312 312 313 313 313 312 312 313 314 315 315
333 333 333 332 332 333 333 333 333 332 332 332 332 332 332 332 332 332 332 331 331 330 330 330 332 334 334 335 336 334 333 332 331 330 329 328 327 327 326 326 325 325 325 325 324 325 325 324 323 322 321 319 317 315 314 313 313 313 312 313 312 311 310 312 313 314 315 315 314 313 314 314 315 315
332 332 332 332 332 332 332 333 333 332 332 332 332 331 331 331 331 331 331 331 331 331 330 330 330 330 330 330 331 330 329 328 328 328 327 327 326 326 326 326 325 326 326 326 325 324 324 322 320 320 319 318 317 316 314 313 313 313 313 313 312 310 310 313 314 314 314 314 314 314 314 314 315 315
332 332 331 331 332 332 333 333 332 332 331 332 331 331 331 331 331 331 330 330 330 330 330 331 330 330 330 329 329 328 328 327 327 327 326 326 326 326 326 326 326 326 325 325 324 324 323 322 320 320 319 318 317 316 315 314 314 313 313 312 311 311 311 313 313 312 312 313 313 314 314 313 313 313
332 331 331 332 332 332 332 332 332 332 332 331 331 331 331 330 330 330 329 329 329 329 330 331 330 331 331 330 328 327 326 326 325 324 324 325 325 326 325 326 326 325 325 324 323 322 321 321 320 320 319 318 317 316 315 314 314 313 312 311 311 312 313 313 312 311 312 314 314 314 313 311 311 310
Wind_Speed
19 19 19 18 18 17 15 14 13 13 13 13 12 12 14 11 5 2 3 5 9 13 14 14 15 17 19 19 18 19 18 15 13 13 13 13 13 13 12 12 12 12 12 12 11 11 12 13 14 15 15 15 14 14 14 14 14 14 14 14 14 15 15 15 15 15 14 14 14 14 14 15 15 15
18 19 20 20 20 20 18 15 14 14 14 15 14 12 13 14 12 8 5 4 9 14 15 15 15 17 21 22 20 19 18 15 14 14 14 14 14 13 12 12 12 13 14 13 12 12 12 12 13 14 15 15 15 15 15 15 15 15 15 15 15 15 15 15 15 15 15 14 14 15 15 16 16 17
20 20 21 21 22 22 21 18 15 15 15 15 15 14 13 12 14 13 8 3 7 11 12 14 16 17 21 24 21 19 18 16 15 16 15 16 15 13 13 12 12 13 14 14 14 14 14 14 13 13 13 14 14 15 15 16 15 15 15 15 15 15 16 16 16 16 16 15 15 15 16 16 16 17
23 22 22 23 23 22 22 22 19 17 16 16 15 15 15 14 13 14 12 7 9 12 10 10 14 17 21 25 23 20 18 17 17 18 17 17 16 15 15 15 14 14 14 14 14 14 13 13 12 12 12 12 13 14 15 15 15 15 15 15 16 16 16 17 17 17 16 16 16 16 16 17 17 17
26 25 24 24 24 23 23 24 23 20 18 18 17 17 17 18 16 15 15 13 12 15 13 8 9 14 19 24 24 21 19 18 18 18 17 17 17 17 18 18 18 17 16 15 14 13 12 12 11 11 11 11 12 12 13 14 14 14 14 15 16 16 17 17 17 17 16 17 17 17 17 17 17 17
29 27 26 25 25 24 24 24 24 23 21 20 20 20 20 20 20 19 19 17 14 16 19 14 9 13 19 21 22 21 19 18 19 19 19 18 18 18 18 18 19 19 17 14 13 14 15 14 13 12 11 11 11 11 12 12 13 13 14 15 15 16 16 16 15 15 15 16 16 16 17 17 17 17
30 29 28 27 27 26 26 26 25 25 25 23 22 23 23 23 22 22 21 21 19 18 21 20 16 16 19 19 20 20 19 19 20 21 20 19 18 17 16 17 17 16 14 13 13 15 16 16 14 13 12 11 11 11 11 11 12 12 13 13 14 14 14 13 13 13 13 14 14 15 15 15 16 16
31 31 30 30 29 28 29 29 28 28 28 27 25 25 25 25 25 25 24 24 24 21 21 23 22 20 19 19 19 19 19 20 21 21 21 20 19 18 17 15 14 12 12 13 14 15 15 16 15 13 12 12 11 11 11 11 11 11 11 11 11 11 11 11 12 11 12 12 12 13 13 14 14 14
32 32 32 32 31 30 31 31 31 31 31 31 29 28 28 28 28 28 27 27 27 25 24 24 24 22 21 22 21 20 20 21 21 21 21 20 20 19 18 17 15 14 13 14 15 15 15 15 15 14 13 13 12 12 11 11 11 10 9 9 8 9 9 10 10 9 9 10 12 13 14 14 14 14
34 34 34 33 32 32 33 33 33 33 33 33 33 32 31 31 31 31 31 30 29 29 28 27 25 24 23 24 24 23 23 23 23 23 22 22 21 20 20 20 19 18 18 17 16 16 16 16 16 15 15 14 13 13 12 12 10 9 8 8 7 8 8 8 8 8 10 12 13 15 15 15 15 15
36 36 36 35 35 35 35 36 36 35 35 35 35 36 34 33 33 33 33 32 31 31 30 28 27 27 26 25 25 24 24 24 25 25 25 25 25 24 24 25 24 22 22 20 18 18 17 17 17 16 15 14 14 14 14 12 10 9 9 9 9 9 8 8 9 10 11 13 14 15 15 16 16 16
36 37 37 37 38 38 38 39 38 38 37 37 37 38 37 35 34 35 34 32 32 31 30 29 29 28 27 26 24 23 24 26 28 29 29 28 28 28 27 27 26 24 23 22 21 20 18 18 18 17 16 16 16 15 14 13 11 10 10 11 11 10 9 10 11 11 11 13 13 14 16 17 18 18
36 37 38 39 40 40 41 41 41 40 40 39 39 40 40 38 36 35 34 32 31 30 28 28 27 26 27 27 26 24 27 30 31 31 30 29 29 28 27 28 27 24 23 23 24 23 21 19 19 18 18 17 16 15 14 14 13 12 12 13 12 11 11 11 11 11 12 13 13 15 17 19 19 18
37 38 39 39 40 41 42 42 42 43 42 42 42 41 41 41 38 35 33 32 32 30 27 27 27 25 26 29 30 29 31 32 31 30 29 30 28 25 23 24 26 25 23 22 25 25 23 21 19 19 18 17 16 16 16 16 14 13 13 13 13 14 13 11 10 11 11 12 14 16 17 17 17 17
38 38 39 39 39 40 42 43 44 44 44 44 44 43 42 42 41 39 36 34 34 32 29 29 28 27 28 31 33 33 33 32 32 31 31 30 27 23 20 19 21 24 24 23 25 26 24 22 21 20 19 18 18 18 18 17 15 14 14 15 15 15 13 11 11 11 11 11 13 14 14 14 15 15
38 37 38 38 38 39 40 42 44 45 46 46 46 46 45 45 44 43 42 40 38 36 34 31 31 32 32 32 34 35 34 34 34 33 32 31 30 27 24 21 21 23 23 24 25 26 25 23 24 24 23 22 21 20 18 17 16 15 15 16 17 15 13 11 11 11 10 10 12 13 13 13 12 12
38 37 37 37 38 38 39 41 43 45 47 48 48 48 48 48 48 47 47 46 44 43 40 37 37 39 37 34 37 39 38 36 34 32 31 32 31 29 28 29 28 23 21 23 25 25 24 23 24 25 24 22 20 18 17 17 15 16 17 17 16 14 12 11 11 10 9 10 11 13 13 11 10 9
39 38 38 38 38 38 39 41 42 43 45 47 49 50 51 51 50 49 50 51 49 47 45 43 43 44 42 41 42 41 39 37 36 34 33 33 33 32 32 33 31 26 23 23 22 21 22 21 21 22 22 20 19 17 16 16 16 17 18 16 14 13 12 11 10 9 9 10 12 12 11 10 8 8
39 40 40 40 40 40 40 41 42 43 44 45 46 49 50 51 51 51 53 54 53 51 50 49 48 47 46 45 44 41 39 40 39 38 37 36 35 33 30 29 28 27 26 25 22 20 21 21 20 20 20 18 17 16 15 16 15 15 15 14 13 13 12 11 10 10 10 11 12 12 10 9 8 8
40 40 41 42 42 42 43 43 43 44 43 43 45 46 47 48 49 51 55 57 56 55 54 53 51 49 47 46 45 42 40 40 40 37 35 34 33 29 25 24 26 27 27 27 26 22 20 21 21 19 17 16 16 16 17 16 13 12 12 12 12 13 11 10 10 10 11 12 11 11 10 9 10 11
39 40 42 42 42 43 44 44 44 44 43 43 43 43 44 44 45 50 55 54 55 57 57 56 54 51 48 46 44 43 42 41 40 36 33 33 33 29 22 20 24 28 29 29 28 25 22 22 22 19 17 16 17 17 17 17 13 10 10 11 12 12 10 10 10 10 12 12 11 11 11 11 11 14
40 41 42 42 42 43 44 43 42 42 42 43 43 41 40 38 42 50 51 46 48 53 56 56 55 52 49 47 45 44 44 43 41 40 38 36 35 31 25 22 23 26 30 32 29 25 24 24 24 21 18 17 20 20 18 17 14 11 12 13 13 12 10 9 10 12 12 12 11 12 12 11 13 15
40 41 41 40 41 43 43 42 42 41 42 44 44 42 37 36 44 50 46 42 44 46 48 52 54 53 52 50 47 46 45 45 45 45 43 40 37 34 30 28 22 15 21 32 32 27 25 26 26 24 17 12 15 21 21 18 15 14 13 14 14 13 11 10 12 12 12 12 12 13 13 12 13 14
39 40 40 39 40 40 40 40 41 41 43 45 46 43 39 41 48 47 40 40 44 43 42 47 51 53 53 50 48 46 46 47 48 48 46 43 42 38 34 32 26 18 22 32 34 29 27 28 28 28 22 13 11 18 21 19 16 14 13 14 14 13 11 12 13 13 12 13 13 13 13 11 11 12
37 38 38 38 39 39 40 40 40 40 42 44 45 46 46 49 51 45 38 40 43 43 43 45 46 48 49 48 47 47 47 49 50 50 48 46 45 43 39 35 31 27 27 30 33 32 29 27 28 29 27 20 14 16 18 16 15 15 13 13 13 12 12 13 14 13 13 14 14 13 11 10 10 11
37 37 37 38 38 39 40 41 41 41 43 44 46 50 52 53 52 48 44 42 40 41 44 43 42 44 45 45 47 48 48 49 50 50 48 47 46 46 46 42 37 34 31 30 32 33 30 29 30 29 27 23 17 17 18 15 13 14 13 12 12 12 12 13 13 14 14 13 12 11 10 11 12 11
38 38 38 38 38 38 39 40 42 43 43 45 47 50 52 53 53 52 49 45 41 41 42 41 41 43 44 45 47 48 49 49 48 48 48 48 47 46 46 45 42 40 37 32 31 33 31 29 31 32 31 26 19 17 17 15 13 14 15 14 13 12 13 14 14 15 14 12 12 12 12 13 13 11
32 30 30 30 30 30 32 34 37 40 43 46 49 51 52 53 54 53 51 47 43 41 39 40 42 43 45 45 46 48 50 48 47 47 46 47 48 46 45 43 41 39 35 31 30 34 33 30 30 32 33 30 24 19 16 15 15 15 15 14 13 13 13 13 14 15 15 14 13 13 13 13 12 10
30 29 29 29 28 27 28 29 31 35 39 42 45 48 51 52 53 52 50 47 42 38 38 40 43 44 46 47 48 49 49 47 46 46 44 42 43 42 41 41 40 38 34 31 30 31 33 33 32 31 31 30 27 23 18 16 15 16 15 14 14 14 14 14 16 17 16 14 13 12 12 12 10 8
26 29 32 33 34 35 36 37 38 40 42 43 45 47 48 49 50 49 48 45 41 39 40 43 44 47 49 49 49 48 47 46 48 48 45 41 38 38 38 38 37 37 35 32 30 30 33 35 34 31 28 25 23 22 19 16 15 15 15 15 14 13 13 15 16 15 13 12 12 13 12 10 9 9
17 21 25 28 30 33 36 38 40 42 44 45 46 47 47 47 48 48 47 47 45 44 45 46 48 50 50 46 43 43 43 45 49 50 45 39 36 38 39 36 34 33 33 32 32 32 33 35 33 30 28 24 20 18 17 16 16 16 15 15 15 14 13 13 13 12 11 11 13 12 11 10 11 13
17 20 22 25 27 29 32 35 37 39 40 40 40 41 41 42 44 45 45 46 47 47 47 47 47 47 45 41 38 39 42 43 44 43 42 40 39 40 38 33 30 29 30 31 33 34 33 34 32 29 27 25 21 18 16 16 15 15 16 16 17 17 17 16 15 13 11 11 13 13 12 13 14 15
14 16 18 20 22 25 28 31 33 34 36 36 37 37 38 39 40 40 41 42 45 48 48 47 46 44 41 39 39 40 42 42 41 42 45 45 42 39 37 32 29 30 30 30 32 33 31 29 27 26 24 21 17 15 17 17 17 17 17 17 18 19 19 18 16 12 10 12 14 14 13 14 15 15
13 14 16 18 20 21 23 25 27 29 30 32 33 34 35 35 36 38 40 41 44 46 45 46 47 45 40 38 36 36 37 37 39 45 50 48 43 39 37 33 31 32 32 31 31 31 30 27 25 24 21 19 16 14 15 16 16 16 17 17 19 20 19 17 14 12 11 14 14 13 14 17 17 14
17 17 18 20 22 22 22 23 25 27 28 30 31 32 34 34 35 36 38 39 40 42 43 44 46 45 42 38 36 37 39 41 43 47 48 46 43 42 39 35 33 33 32 31 32 33 32 31 29 25 21 19 16 15 16 17 15 14 16 17 18 19 19 16 13 12 13 13 12 11 14 17 17 14
20 20 19 21 23 23 23 25 26 27 28 30 30 31 32 34 34 35 37 38 38 39 41 43 43 43 42 40 38 39 43 44 45 45 45 44 43 42 39 35 33 34 33 32 34 35 34 33 32 26 18 13 10 9 13 18 16 14 16 18 19 19 19 16 14 13 14 13 12 11 13 16 17 15
21 21 21 22 22 22 23 25 27 28 29 30 31 31 32 34 37 39 40 40 39 40 41 42 43 44 44 41 38 38 41 42 44 45 45 44 42 40 37 34 33 33 33 32 34 35 34 32 31 27 17 9 5 5 9 14 14 13 16 19 19 19 19 17 14 14 14 13 12 13 14 17 18 15
19 20 21 21 22 22 23 24 26 28 29 30 31 32 33 36 38 40 39 38 38 39 40 41 42 42 42 41 38 38 41 43 44 46 46 45 43 40 37 35 35 34 32 31 32 34 33 30 29 27 20 11 5 5 7 8 10 11 15 19 20 19 18 16 15 15 15 14 14 14 14 17 18 16
17 17 18 19 20 22 23 24 25 26 28 29 30 32 34 36 38 39 37 36 37 38 39 40 41 42 41 39 35 33 37 40 41 43 43 42 41 39 38 36 35 33 31 29 28 29 29 28 28 28 25 19 14 13 12 11 8 7 8 12 16 18 18 18 18 17 17 16 16 16 16 17 18 18
17 17 17 18 20 20 21 23 24 24 25 27 28 30 33 34 33 31 30 31 35 38 39 40 41 40 40 38 31 27 29 34 37 40 43 44 42 39 37 36 35 33 30 26 25 26 27 29 30 30 29 25 21 17 14 12 8 6 6 8 12 15 17 18 19 20 19 18 17 16 17 17 18 18
18 18 18 18 19 20 20 21 22 22 24 25 26 28 30 28 24 20 20 21 22 25 30 37 41 37 35 36 34 27 23 24 26 30 35 39 39 38 37 35 33 32 29 24 23 26 28 29 30 29 28 24 19 15 11 8 7 8 8 9 10 11 13 15 17 18 18 16 15 16 17 18 18 18
16 17 18 18 18 18 19 19 20 21 22 23 23 24 25 24 22 21 22 25 27 31 33 25 15 3 8 9 14 13 14 16 22 29 33 34 35 35 35 33 32 31 29 25 23 25 26 26 26 26 25 22 19 15 11 8 9 10 9 9 10 10 11 12 14 14 14 14 14 15 16 15 13 11
16 16 16 16 16 17 17 17 18 19 20 21 22 23 22 23 24 23 24 27 30 37 44 40 31 36 44 36 26 30 35 29 27 33 38 38 35 33 31 31 31 30 28 26 24 23 24 24 25 25 23 20 18 16 13 13 14 12 11 11 12 12 11 11 11 11 10 11 12 14 15 14 11 9
15 15 15 15 15 15 15 16 16 18 19 19 21 23 23 24 25 25 24 27 31 33 38 43 43 43 46 46 45 46 45 41 39 38 36 35 34 31 29 29 29 27 24 23 22 21 22 24 25 23 21 20 19 18 17 15 14 12 11 11 12 13 12 11 11 10 10 11 13 13 13 13 12 10
13 14 14 14 15 15 15 16 16 17 18 18 20 22 23 24 27 27 25 25 28 30 31 35 42 43 43 44 45 44 42 40 37 33 30 29 29 28 26 26 26 24 22 23 23 22 22 24 23 22 21 20 19 19 17 14 12 11 11 12 13 13 14 14 13 12 13 14 13 11 8 7 6 6
Wind_Direction
214 210 209 213 217 217 216 222 227 226 226 230 234 233 222 208 193 177 206 234 225 219 226 232 227 224 222 220 216 213 217 225 234 240 242 242 241 243 253 261 260 260 259 259 261 263 266 268 269 269 270 273 278 282 287 291 294 296 298 298 297 296 295 295 296 296 296 295 293 292 292 293 295 297
219 215 215 217 219 219 221 224 225 227 229 229 229 229 224 220 214 198 189 233 234 227 232 236 232 228 224 220 215 213 218 228 235 239 241 241 243 247 256 261 258 257 256 253 255 260 266 270 269 268 268 270 275 279 283 288 292 295 297 299 300 299 299 299 300 299 299 299 298 296 294 292 292 293
219 217 218 220 221 221 224 227 228 230 232 231 229 223 217 219 222 217 203 213 239 233 237 242 238 231 222 215 213 215 222 231 236 238 241 245 250 251 251 252 252 252 250 249 256 264 270 273 272 270 270 271 274 278 283 287 290 294 298 300 302 303 303 303 302 302 302 302 301 300 298 295 292 291
219 219 220 222 223 223 226 230 231 233 234 233 232 229 224 219 220 223 215 210 235 241 246 251 243 231 218 211 212 217 224 231 235 237 242 245 245 244 245 249 252 252 250 254 263 269 270 270 270 272 273 274 277 280 283 287 290 294 298 299 301 302 302 301 300 301 301 301 301 301 300 298 295 293
219 221 222 223 224 224 227 231 232 233 235 237 236 234 231 226 223 224 221 220 235 242 243 249 242 225 213 210 214 220 225 228 228 231 236 240 242 243 246 251 255 257 258 259 259 259 259 261 265 269 273 276 279 281 283 286 289 293 295 297 298 298 297 296 296 296 296 297 298 299 299 299 297 296
218 220 223 224 224 224 227 231 232 232 233 237 238 234 233 231 227 226 225 224 229 237 238 238 226 209 208 212 217 221 226 228 224 224 228 232 239 245 250 255 256 256 256 252 250 254 255 256 261 265 271 276 278 280 283 285 287 290 292 293 294 294 293 290 289 289 291 293 295 296 298 298 299 297
218 218 222 225 224 223 224 228 231 231 230 234 237 235 234 234 232 229 229 227 227 231 235 235 227 215 213 218 222 223 226 229 225 224 227 230 236 243 249 253 253 252 251 247 253 261 256 251 257 264 269 275 278 280 282 284 286 288 290 292 293 291 289 286 285 287 290 294 296 298 299 299 299 299
219 218 220 224 224 222 222 225 228 228 228 230 233 234 233 234 235 233 231 230 230 231 234 235 232 229 225 223 223 221 221 224 226 226 227 230 234 239 243 245 243 245 250 251 256 260 253 248 254 263 268 271 273 274 275 280 285 288 290 294 293 290 287 286 288 292 297 301 303 304 304 303 300 299
220 220 221 224 224 221 220 223 225 226 226 226 228 231 232 232 234 233 231 231 231 230 233 235 233 231 231 230 229 226 219 219 223 227 230 231 232 235 237 237 237 242 248 250 252 254 252 250 254 261 266 267 266 268 272 278 284 290 294 293 290 291 293 293 295 301 309 314 316 315 312 309 306 302
222 222 223 224 223 221 221 222 223 224 224 224 225 227 230 230 229 229 229 229 229 228 231 234 234 230 229 230 231 229 224 220 220 223 227 231 233 234 232 231 235 240 243 245 246 249 253 255 257 259 260 261 262 265 269 273 281 288 287 281 286 298 304 303 304 312 318 322 321 318 315 312 309 306
225 224 225 225 224 223 223 224 225 224 224 223 224 225 227 228 225 224 225 225 225 226 227 229 231 231 230 229 229 229 227 225 225 224 224 226 229 231 232 233 236 239 240 241 242 247 253 258 258 257 257 258 261 264 265 266 274 282 276 271 284 300 308 306 305 308 314 320 321 319 318 315 312 309
227 226 226 226 226 226 226 226 227 226 224 223 224 224 225 226 224 221 221 220 221 222 223 225 227 229 229 230 230 228 222 220 224 227 226 228 230 230 232 236 239 240 239 239 240 244 248 249 247 246 248 252 255 259 260 261 268 274 270 270 280 294 304 305 303 304 308 315 319 321 321 319 314 310
229 228 228 228 228 228 228 229 229 229 228 226 225 225 224 223 222 221 219 218 218 219 221 223 224 225 226 227 225 222 217 218 223 226 225 228 233 233 234 237 240 240 239 239 241 244 245 243 239 239 244 248 250 253 258 261 268 273 268 268 277 287 296 299 297 298 303 309 316 320 320 318 314 311
228 229 230 230 230 230 231 231 232 232 232 231 230 230 227 223 221 219 218 217 217 218 219 221 220 221 224 225 222 222 222 222 225 224 221 223 228 229 231 237 239 238 237 238 240 243 245 243 239 238 244 248 246 251 258 263 267 266 263 268 277 280 282 288 290 292 299 307 314 318 319 318 316 314
228 229 230 232 232 232 232 232 233 234 234 234 235 235 233 230 226 221 219 218 218 218 220 222 220 220 224 225 223 223 225 224 224 223 220 220 220 217 218 228 234 234 233 232 234 238 240 239 236 237 244 249 249 254 261 265 265 263 264 271 275 271 270 278 285 288 294 302 312 320 325 325 320 317
228 229 230 232 232 233 233 233 233 234 235 236 236 236 236 236 233 229 225 223 220 219 220 222 222 222 224 225 223 223 223 223 223 223 221 219 219 216 216 222 229 230 228 225 227 234 237 237 237 241 247 251 252 256 261 263 262 261 265 268 265 261 265 273 278 283 289 300 316 328 333 332 328 325
229 229 231 231 232 233 234 234 234 233 233 235 236 237 237 236 236 234 232 231 228 224 222 221 224 225 225 224 225 224 222 221 221 220 219 219 219 218 218 223 227 226 221 217 219 230 238 238 239 244 249 251 252 256 259 260 258 257 259 259 256 256 262 268 273 281 292 306 320 327 329 332 337 341
231 231 231 231 233 233 234 234 234 233 233 232 233 233 233 234 234 234 234 234 232 229 226 225 228 230 228 227 229 228 224 221 220 218 217 218 218 218 222 228 229 225 222 218 214 223 235 236 235 242 247 249 251 255 257 258 259 259 256 252 250 254 258 262 273 286 298 309 315 321 325 327 329 336
234 234 234 234 235 235 235 235 234 233 233 231 231 231 231 231 232 232 234 234 232 231 230 230 232 234 233 232 232 229 225 224 223 222 222 222 221 220 222 226 226 223 222 219 212 217 228 228 227 236 245 249 249 251 255 258 257 252 247 244 246 248 251 260 275 288 298 304 306 310 317 316 312 313
237 237 237 237 237 237 237 236 236 235 234 231 230 231 230 231 231 232 235 235 234 234 233 233 235 236 236 235 234 230 227 226 225 224 224 223 219 214 212 213 214 214 216 216 214 214 220 222 223 229 240 245 243 242 246 250 247 238 236 243 246 243 248 262 273 284 295 296 295 301 306 306 303 300
240 240 239 239 239 240 240 239 238 238 236 234 232 231 231 231 232 234 236 236 235 236 236 236 236 237 237 237 236 233 230 228 224 219 216 215 209 204 202 204 207 209 212 215 215 212 214 219 221 223 227 230 233 236 237 235 233 238 247 252 248 244 248 257 267 282 289 285 285 293 297 297 298 297
241 242 242 242 241 242 243 243 242 240 239 237 235 234 233 232 233 237 237 235 235 237 237 237 237 237 237 237 236 234 231 229 224 218 215 213 206 201 202 201 203 208 213 215 211 207 211 219 219 216 212 215 224 229 227 224 231 245 251 248 244 241 239 248 267 280 279 275 280 288 292 295 298 297
243 245 246 245 245 245 247 246 245 244 241 239 238 237 235 234 237 240 237 234 235 236 235 235 235 235 235 235 234 234 231 228 225 221 219 214 205 201 203 201 196 202 216 216 209 203 207 214 214 209 198 196 217 221 220 224 233 237 235 232 232 231 232 250 269 270 265 269 279 285 288 292 295 293
244 246 248 249 249 249 250 250 249 247 245 242 241 239 236 236 241 244 241 237 237 236 235 235 234 233 233 232 231 231 228 225 224 223 221 216 209 205 203 200 198 203 215 213 207 204 207 211 211 208 201 190 194 204 209 217 220 219 219 223 226 228 237 256 264 259 260 272 281 285 286 286 288 289
245 248 249 251 252 252 253 253 252 251 250 248 245 242 240 242 246 247 245 242 239 237 236 236 234 233 232 230 229 228 226 223 222 220 220 217 213 209 205 202 202 208 216 214 207 204 205 207 207 205 202 199 187 181 191 200 204 207 213 217 225 237 248 252 253 255 265 275 279 280 281 284 286 285
245 248 250 253 255 255 255 256 255 254 253 252 250 248 248 249 249 248 246 244 240 236 235 234 232 231 229 227 226 226 224 223 220 218 217 216 214 212 211 209 207 208 213 212 207 205 205 206 206 200 196 197 190 177 179 185 193 201 208 216 229 241 242 240 247 260 267 270 274 277 279 283 282 279
247 250 252 255 256 257 258 259 258 258 256 255 254 254 254 254 252 250 247 245 241 237 235 233 231 229 227 224 223 223 222 222 219 217 215 214 213 212 213 214 214 215 215 211 207 207 207 208 208 202 195 188 178 175 183 188 192 201 209 218 227 230 230 237 250 259 261 263 270 273 275 275 273 275
249 253 255 256 257 259 260 261 261 260 259 258 258 258 258 257 255 251 248 246 243 239 235 233 233 232 228 225 223 222 221 221 219 217 215 213 212 211 210 211 212 213 211 207 205 205 207 209 209 204 199 190 177 175 188 194 199 208 212 214 219 225 232 241 247 250 255 263 267 266 269 273 272 275
255 258 261 263 264 265 267 268 268 266 263 261 261 261 261 260 256 252 248 247 245 241 237 235 236 236 233 229 227 225 221 218 217 215 212 210 209 208 205 205 206 205 204 205 206 205 207 209 205 198 198 196 189 185 187 191 200 210 212 212 223 236 240 239 242 249 254 256 258 263 271 273 272 276
265 266 268 269 270 271 271 272 274 273 271 271 270 268 266 263 259 254 250 248 246 243 240 239 238 238 237 234 230 225 219 214 212 211 208 204 201 200 197 196 198 201 204 207 208 205 205 206 204 198 196 196 195 194 194 193 198 204 211 219 229 239 242 239 241 247 248 247 256 269 274 270 273 288
275 273 273 274 275 275 275 275 276 277 277 277 276 273 271 267 263 259 254 251 249 246 243 242 241 241 240 237 230 222 216 212 210 208 202 196 195 196 194 192 192 195 198 202 205 205 204 204 204 203 200 193 190 194 198 199 201 207 217 225 228 232 237 241 243 240 237 248 261 266 267 270 281 292
285 283 283 284 284 285 286 286 286 285 283 282 280 277 274 271 268 265 261 256 254 252 249 248 246 244 240 237 229 221 215 213 210 203 195 194 197 195 190 188 188 187 186 190 195 198 201 204 205 207 206 201 193 187 190 198 208 217 224 226 230 236 242 248 250 242 236 253 264 261 262 275 288 297
304 304 305 305 303 302 301 298 296 293 290 288 285 281 277 274 269 265 261 256 255 254 253 251 250 247 242 236 229 220 213 210 205 196 191 194 198 193 186 185 185 182 180 182 185 188 192 197 201 204 206 206 197 185 187 199 211 222 228 230 234 240 245 248 247 241 242 257 262 259 265 281 293 300
353 346 338 331 325 319 313 307 303 301 300 297 294 291 287 282 276 269 262 257 256 255 254 252 251 249 244 236 227 217 208 201 196 193 193 193 191 187 185 184 183 182 182 178 177 180 182 185 190 196 197 196 192 189 197 208 215 221 229 237 239 241 245 244 238 236 248 256 254 257 274 287 295 299
9 360 346 337 331 324 317 310 306 304 303 300 297 297 295 290 285 280 273 267 263 260 257 255 255 252 247 238 225 212 202 194 190 191 192 190 187 185 185 183 181 179 177 173 173 176 179 180 182 183 182 181 182 191 206 216 223 228 232 237 240 241 241 237 231 236 246 246 245 260 281 289 293 298
6 358 346 336 331 325 318 314 311 308 304 300 297 296 294 291 288 285 281 278 274 267 260 256 254 253 249 240 226 213 203 194 188 185 184 183 183 183 181 179 177 175 173 172 173 174 175 178 178 173 166 167 171 186 208 219 227 234 232 232 236 238 237 231 231 239 241 237 245 268 282 283 287 296
3 357 347 336 330 325 319 316 316 312 308 304 300 295 291 288 287 284 282 282 280 275 268 261 256 252 249 242 229 215 206 196 186 180 180 179 176 174 173 171 172 174 174 173 173 173 174 178 178 173 166 167 176 189 207 216 225 234 235 235 237 238 235 231 230 233 233 238 256 271 274 273 279 291
1 353 345 337 332 328 325 323 322 319 315 311 306 300 296 292 289 288 287 284 280 278 276 271 264 257 251 243 229 213 204 197 187 180 177 175 170 167 167 165 165 168 170 170 170 173 175 179 183 182 177 172 177 191 197 208 224 238 242 239 238 237 234 228 224 226 232 246 264 272 271 271 277 287
2 354 346 340 336 333 332 332 329 326 323 320 317 313 309 304 301 299 295 288 282 277 274 271 268 263 258 252 241 220 205 196 188 179 172 167 164 162 160 158 158 160 159 158 162 168 175 183 190 191 188 187 192 199 199 199 207 225 233 228 226 228 227 221 222 231 243 255 267 273 273 273 275 282
3 0 355 348 344 343 343 342 339 339 339 338 336 334 328 322 319 317 312 303 292 281 272 268 266 264 261 257 248 231 215 202 188 176 166 159 155 155 153 151 151 149 144 144 152 163 176 191 198 200 200 202 204 202 195 189 187 185 182 187 199 213 221 225 232 242 251 259 266 270 273 274 277 284
6 5 1 356 353 353 353 351 350 352 354 353 352 351 348 345 345 351 359 353 334 315 296 276 261 258 262 256 238 221 212 201 180 161 152 146 142 143 144 141 138 136 135 140 154 169 184 199 206 206 206 205 198 185 173 170 179 189 191 191 198 216 233 243 248 250 253 258 261 261 265 271 277 284
13 11 5 2 2 3 2 0 359 358 358 358 360 3 5 6 5 8 19 25 23 18 6 337 290 277 18 299 235 179 140 147 148 134 124 119 119 124 128 127 126 132 141 152 167 180 193 203 204 201 198 195 187 179 176 183 195 204 215 222 232 247 256 259 260 257 253 252 253 253 258 265 268 271
18 17 11 7 10 12 11 7 4 3 3 5 8 10 14 16 12 7 13 24 31 37 40 42 54 68 67 63 69 78 80 84 96 101 103 106 109 114 120 126 133 142 152 163 174 183 190 192 191 190 190 191 191 192 196 200 205 214 226 237 254 267 263 254 257 259 251 248 250 254 260 263 261 261
21 22 19 17 19 20 19 16 13 11 12 17 21 21 18 18 15 10 15 31 40 46 55 63 68 73 74 74 75 77 79 81 83 87 95 105 114 121 128 137 145 152 160 170 179 186 190 191 191 193 195 197 198 200 201 203 208 215 224 238 257 267 261 254 258 258 252 253 256 256 260 261 260 266
28 30 28 26 27 26 25 26 24 22 23 29 34 35 31 27 24 20 21 33 46 51 57 69 79 85 86 85 84 83 84 88 94 101 109 117 126 133 139 146 152 157 165 173 176 178 183 187 190 195 199 200 200 201 202 205 212 223 234 244 251 252 250 255 259 257 256 256 250 243 244 247 254 279